Location: Holton (historical)
(33.9472°N, 118.4440°W)
Time: 23:13:56
(UTC+00:00)

COSMOS 2428 - Pass Details

Date: 03 August 2024
Orbit: 842 x 857 km, 70.9° (Epoch: 08 September)

Event Time Altitude Azimuth Distance (km) Brightness Sun altitude
Exits shadow 12:05:35 16° 253° (WSW) 2,081 4.1 -12.3°
Maximum altitude 12:08:55 26° 300° (WNW) 1,596 3.9 -11.7°
Drops below altitude 10° 12:13:38 10° 356° (N) 2,476 5.5 -10.9°
Sets 12:16:31 0° 9° (N) 3,417 6.4 -10.3°
